Terminal Aerodrome Forecast
Issued by NWS Jackson, MS

Home | Current Version | Previous Version | Text Only | Print | Product List | Glossary On
Versions: 1 2 3 4 5 6 7 8 9 10 11 12 13 14 15 16 17 18
810
FTUS44 KMEG 232058 AAA
TAFTUP
TAF AMD
KTUP 232058Z 2321/2418 18011KT P6SM SCT025
     FM232200 18008KT P6SM SCT250
     FM240400 18005KT P6SM SCT007
      TEMPO 2410/2414 BKN005
     FM241500 21013G22KT P6SM SCT250=

USA.gov is the U.S. government's official web portal to all federal, state and local government web resources and services.